Date,TemperatureHighF,TemperatureAvgF,TemperatureLowF,DewpointHighF,DewpointAvgF,DewpointLowF,HumidityHigh,HumidityAvg,HumidityLow,PressureMaxIn,PressureMinIn,WindSpeedMaxMPH,WindSpeedAvgMPH,GustSpeedMaxMPH,PrecipitationSumIn
2013-1-1,44.7,42.0,38.3,34.0,31.7,28.0,74,67,58,29.94,29.82,11,2,0,0.00
2013-1-2,38.3,33.6,28.8,29.0,22.1,19.0,72,63,53,30.16,29.92,10,2,0,0.00
2013-1-3,39.5,31.4,25.0,24.0,21.0,18.0,78,66,53,30.18,30.07,10,1,0,0.00
2013-1-4,43.3,35.5,27.0,30.0,25.4,22.0,82,67,55,30.11,30.00,16,3,0,0.00
2013-1-5,45.1,38.1,32.1,31.0,27.3,24.0,78,66,55,30.29,30.04,6,1,0,0.00
2013-1-6,52.5,43.3,31.2,37.0,33.7,29.0,94,71,51,30.12,29.94,10,2,0,0.00
2013-1-7,47.0,41.1,30.1,34.0,31.3,27.0,87,69,58,30.35,30.06,9,2,0,0.00
2013-1-8,56.2,39.8,29.0,40.0,32.9,26.0,91,78,52,30.35,30.28,5,0,0,0.00
2013-1-9,51.7,42.4,32.0,45.0,38.0,30.0,93,85,72,30.30,30.14,6,0,0,0.00
2013-1-10,55.2,46.4,38.1,39.0,34.2,31.0,76,63,50,30.51,30.27,7,1,0,0.00
2013-1-11,45.4,42.9,39.0,44.0,38.1,33.0,97,83,67,30.42,30.01,3,0,0,0.15
2013-1-12,57.2,47.5,43.7,52.0,45.5,43.0,97,93,80,30.09,30.01,3,0,0,0.00
2013-1-13,49.4,46.2,42.8,49.0,45.5,42.0,100,97,95,30.06,29.90,3,0,0,0.02
2013-1-14,58.0,40.7,41.9,54.0,17.0,-99.9,99,74,65,30.22,29.87,7,1,0,0.17
2013-1-15,41.9,40.4,36.4,41.0,38.4,35.0,100,92,81,30.26,30.09,8,1,0,0.34
2013-1-16,41.7,38.7,35.8,41.0,37.9,35.0,97,96,95,30.07,29.79,5,1,0,0.62
2013-1-17,46.0,42.8,39.7,42.0,34.7,32.0,97,74,61,30.04,29.88,10,1,0,0.01
2013-1-18,39.6,34.6,29.5,33.0,21.6,15.0,78,60,43,30.42,29.96,15,3,0,0.00
2013-1-19,56.0,41.6,27.6,36.0,29.4,18.0,83,63,46,30.34,29.87,10,2,0,0.00
2013-1-20,58.2,46.0,36.3,39.0,29.4,20.0,74,54,32,30.01,29.72,18,4,0,0.00
2013-1-21,35.9,31.7,29.4,24.0,19.4,18.0,68,61,52,30.03,30.00,6,1,0,0.00
2013-1-26,34.2,28.9,23.5,22.0,20.9,19.0,85,73,61,30.34,30.13,9,2,0,0.04
2013-1-27,39.0,29.9,21.9,26.0,22.3,19.0,90,74,54,30.52,30.35,8,0,0,0.00
2013-1-28,40.2,35.5,30.3,39.0,33.2,26.0,100,91,79,30.43,29.97,5,0,0,0.02
2013-1-29,59.4,46.8,35.1,53.0,44.0,34.0,98,90,76,30.06,29.91,3,0,0,0.00
2013-1-30,71.4,55.6,43.9,66.0,53.8,43.0,99,94,81,29.90,29.18,10,2,0,0.89
2013-1-31,60.6,44.0,30.1,60.0,32.3,17.0,99,65,50,29.83,29.06,22,9,0,0.98
2013-2-1,31.9,27.5,21.0,27.0,15.1,8.0,90,60,46,30.28,29.75,20,6,0,0.00
2013-2-2,30.5,24.4,18.0,27.0,15.8,9.0,93,71,50,30.30,29.94,5,1,0,0.00
2013-2-3,34.4,30.0,23.6,30.0,26.7,21.0,95,87,65,29.94,29.76,11,1,0,0.04
2013-2-4,38.2,30.7,23.2,25.0,19.5,15.0,75,64,52,30.02,29.82,12,2,0,0.00
2013-2-5,39.6,35.9,32.5,33.0,30.4,26.0,87,80,72,29.86,29.79,3,0,0,0.00
2013-2-6,43.3,37.2,31.0,33.0,29.4,23.0,91,74,58,30.28,29.86,12,2,0,0.00
2013-2-7,39.3,34.1,27.2,31.0,26.4,23.0,85,74,59,30.39,30.14,9,1,0,0.00
2013-2-8,44.0,39.2,35.1,42.0,35.7,27.0,96,87,70,30.14,29.66,17,3,0,0.21
2013-2-9,40.4,33.8,29.1,27.0,21.7,19.0,71,62,51,30.30,29.80,19,5,0,0.00
2013-2-10,41.8,33.7,22.5,31.0,22.1,19.0,86,64,45,30.41,30.18,6,1,0,0.00
2013-2-11,54.2,45.4,37.3,52.0,43.6,32.0,97,93,65,30.18,29.60,7,2,0,0.34
2013-2-12,56.2,47.9,38.2,39.0,34.6,30.0,72,61,49,29.91,29.71,13,3,0,0.00
2013-2-13,45.5,37.9,31.9,37.0,32.2,27.0,95,80,67,29.89,29.60,4,1,0,0.23
2013-2-14,35.8,35.3,34.9,35.0,34.1,34.0,95,95,95,29.75,29.68,3,1,0,0.01
2013-2-15,56.4,44.4,33.2,45.0,38.0,31.0,94,80,62,29.95,29.82,14,2,0,0.09
2013-2-16,39.3,36.8,34.0,36.0,32.1,21.0,96,84,60,29.93,29.74,12,2,0,0.04
2013-2-17,33.8,29.4,25.1,21.0,16.7,11.0,75,60,48,30.10,29.73,22,7,0,0.00
2013-2-18,43.8,31.0,20.8,25.0,15.2,10.0,77,53,36,30.30,30.09,16,2,0,0.00
2013-2-19,45.5,38.4,29.5,43.0,33.4,24.0,93,82,59,30.09,29.63,9,2,0,0.13
2013-2-20,38.9,32.7,26.1,26.0,19.8,14.0,66,59,53,30.07,29.75,15,6,0,0.00
2013-2-21,39.5,31.3,24.5,23.0,18.8,15.0,69,60,51,30.24,30.03,17,5,0,0.00
2013-2-22,34.4,32.5,30.3,32.0,25.7,20.0,93,77,65,30.32,30.15,6,1,0,0.01
2013-2-23,48.1,41.1,33.5,47.0,40.1,32.0,97,96,93,30.14,29.72,6,1,0,0.10
2013-2-24,51.0,43.0,33.7,43.0,34.9,25.0,96,75,51,30.01,29.71,16,4,0,0.00
2013-2-25,50.8,39.4,31.5,33.0,28.0,23.0,83,65,49,30.15,30.01,10,1,0,0.00
2013-2-26,43.7,38.9,31.5,43.0,35.6,28.0,97,88,76,30.15,29.56,16,3,0,0.48
2013-2-27,56.7,48.9,42.2,45.0,42.0,38.0,97,79,56,29.60,29.42,12,4,0,0.06
2013-2-28,48.3,44.4,41.2,40.0,34.5,31.0,86,69,51,29.63,29.55,12,3,0,0.01
2013-3-1,46.5,42.8,39.8,36.0,33.9,32.0,81,71,61,29.72,29.61,12,4,0,0.00
2013-3-3,39.2,36.0,33.5,26.0,24.0,22.0,65,62,59,29.80,29.71,11,4,0,0.00
2013-3-4,43.2,35.5,28.8,27.0,22.4,18.0,67,59,51,29.93,29.80,18,6,0,0.00
2013-3-5,50.3,39.5,30.3,34.0,26.6,21.0,75,61,41,30.00,29.77,9,2,0,0.00
2013-3-6,41.3,38.1,34.4,38.0,35.2,31.0,96,89,71,29.89,29.57,24,5,0,0.55
2013-3-7,51.8,43.5,37.2,34.0,31.3,29.0,77,63,49,30.05,29.89,20,3,0,0.00
2013-3-8,51.1,43.4,35.7,34.0,30.4,26.0,74,61,52,30.17,30.03,22,6,0,0.00
2013-3-9,65.9,49.2,37.3,35.0,30.3,26.0,66,51,28,30.25,30.15,11,2,0,0.00
2013-3-10,58.2,43.4,33.8,41.0,33.3,28.0,84,69,46,30.25,30.19,6,1,0,0.00
2013-3-15,51.1,49.6,48.3,37.0,35.6,35.0,63,59,54,29.72,29.70,0,0,0,0.00
2013-3-16,52.4,45.4,39.3,43.0,37.4,35.0,84,74,65,29.85,29.58,12,2,0,0.00
2013-3-17,43.2,39.2,35.5,35.0,31.6,26.0,92,75,60,30.19,29.85,7,1,0,0.00
2013-3-18,39.5,37.8,36.5,38.0,31.1,24.0,95,78,59,30.25,29.80,12,2,0,0.29
2013-3-19,59.0,46.1,38.6,43.0,36.3,21.0,96,73,30,29.81,29.62,15,3,0,0.06
2013-3-20,53.4,44.0,32.2,27.0,23.8,20.0,68,46,33,29.90,29.69,18,4,0,0.00
2013-3-21,43.0,35.9,29.9,29.0,20.1,14.0,79,54,41,29.79,29.66,14,4,0,0.00
2013-3-22,46.3,36.7,28.8,26.0,21.4,15.0,66,55,44,29.91,29.78,15,5,0,0.00
2013-3-23,53.1,39.8,28.3,31.0,25.9,22.0,78,59,42,29.94,29.83,11,3,0,0.00
2013-3-24,45.2,39.4,31.8,35.0,27.4,23.0,88,63,52,29.92,29.60,5,1,0,0.00
2013-3-25,38.1,36.2,34.0,37.0,34.5,33.0,100,93,86,29.60,29.43,8,1,0,0.57
2013-3-26,53.3,43.2,34.0,38.0,34.3,31.0,94,73,44,29.87,29.61,13,4,0,0.10
2013-3-27,44.7,43.4,42.2,34.0,33.4,33.0,71,68,64,29.89,29.87,12,6,0,0.00
2013-3-29,58.2,51.8,46.4,36.0,34.3,33.0,64,52,43,30.10,30.04,4,1,0,0.00
2013-3-30,62.2,50.7,39.0,39.0,33.6,29.0,79,55,30,30.14,30.02,10,1,0,0.00
2013-3-31,56.1,47.7,41.6,51.0,42.5,32.0,96,82,64,30.04,29.66,7,1,0,0.03
2013-4-1,49.3,45.9,41.8,47.0,38.8,23.0,96,79,48,29.89,29.68,3,1,0,0.02
2013-4-2,48.8,41.2,31.4,26.0,22.7,20.0,73,49,37,30.08,29.90,16,3,0,0.00
2013-4-3,50.3,40.9,30.5,25.0,21.7,18.0,68,48,32,30.28,30.08,12,3,0,0.00
2013-4-4,50.6,40.4,28.0,34.0,24.4,17.0,73,54,39,30.34,30.02,6,1,0,0.00
2013-4-5,66.9,52.4,38.8,44.0,35.8,28.0,94,60,33,30.02,29.71,14,2,0,0.11
2013-4-6,56.5,48.4,38.3,35.0,27.9,25.0,68,46,37,30.24,29.95,7,2,0,0.00
2013-4-7,70.4,54.6,39.8,52.0,43.2,32.0,86,67,49,30.20,29.89,6,1,0,0.00
2013-4-8,79.5,65.5,52.3,60.0,53.3,46.0,82,66,47,29.98,29.86,7,1,0,0.00
2013-4-9,67.7,65.4,63.4,56.0,55.9,55.0,75,71,67,29.87,29.86,2,0,0,0.00
2013-4-21,57.4,51.7,45.0,39.0,34.6,29.0,76,53,42,30.52,30.44,6,1,0,0.00
2013-4-22,59.0,49.3,39.4,45.0,39.9,35.0,86,71,56,30.51,30.34,14,2,0,0.01
2013-4-23,65.9,53.3,47.0,51.0,45.2,42.0,89,75,53,30.33,30.04,6,1,0,0.00
2013-4-24,75.4,61.1,45.7,65.0,55.3,44.0,95,82,67,30.04,29.70,9,1,0,0.00
2013-4-25,67.6,56.6,46.9,54.0,40.2,36.0,77,56,35,30.21,29.87,16,3,0,0.00
2013-4-26,67.8,57.4,46.6,43.0,40.0,38.0,79,54,35,30.36,30.21,9,2,0,0.00
2013-4-27,71.4,58.7,42.7,49.0,42.9,38.0,86,58,39,30.35,30.20,7,1,0,0.00
2013-4-28,71.3,59.2,45.6,55.0,45.9,43.0,91,64,41,30.21,30.06,11,1,0,0.00
2013-4-29,59.8,57.2,54.3,59.0,55.2,45.0,97,93,62,30.08,29.98,4,1,0,0.00
2013-4-30,63.1,58.0,55.0,60.0,55.7,44.0,97,92,66,30.21,30.01,7,2,0,0.01
2013-5-1,71.6,59.6,45.0,54.0,47.4,41.0,88,66,46,30.35,30.21,10,1,0,0.00
2013-5-2,71.1,59.4,47.6,58.0,51.1,46.0,93,75,58,30.36,30.23,9,1,0,0.00
2013-5-3,68.6,57.8,49.0,56.0,49.3,45.0,92,75,58,30.30,30.23,8,1,0,0.00
2013-5-4,70.5,58.6,48.0,56.0,49.5,46.0,91,73,55,30.27,30.10,4,1,0,0.00
2013-5-5,65.6,55.3,46.8,53.0,47.4,42.0,85,75,61,30.18,30.08,8,2,0,0.00
2013-5-6,64.3,56.9,49.3,60.0,53.6,45.0,93,88,83,30.12,29.99,9,2,0,0.00
2013-5-7,65.0,61.4,58.9,64.0,60.4,58.0,97,96,93,30.01,29.87,11,3,0,0.00
2013-5-8,73.1,62.3,57.6,66.0,59.9,56.0,97,92,71,29.92,29.84,5,1,0,0.00
2013-5-9,77.3,64.8,54.5,65.0,59.6,54.0,97,84,63,29.90,29.83,8,1,0,0.00
2013-5-10,85.3,70.5,56.2,71.0,63.7,55.0,96,80,59,29.91,29.77,5,0,0,0.00
2013-5-11,81.6,63.1,63.6,71.0,53.3,-99.9,97,91,65,29.83,29.62,7,0,0,0.00
2013-5-12,65.4,60.5,51.3,64.0,46.8,36.0,97,64,38,29.94,29.64,17,4,0,0.00
2013-5-13,60.6,52.1,42.3,38.0,35.6,32.0,84,56,35,30.07,29.94,15,3,0,0.00
2013-5-14,64.1,53.5,40.0,48.0,38.0,33.0,77,57,40,30.13,29.96,12,1,0,0.00
2013-5-15,82.7,64.7,55.8,70.0,58.0,47.0,93,79,64,29.98,29.60,11,1,0,0.00
2013-5-16,82.7,75.8,68.1,70.0,65.7,61.0,89,71,64,29.80,29.64,13,2,0,0.00
2013-5-17,83.2,72.6,59.6,62.0,57.2,50.0,93,61,37,30.06,29.81,5,1,0,0.00
2013-5-18,70.9,64.4,60.3,61.0,58.3,52.0,96,81,63,30.16,30.07,6,0,0,0.00
2013-5-19,70.4,54.2,60.8,69.0,36.5,-99.9,97,84,92,30.13,30.01,4,0,0,0.00
2013-5-20,68.5,66.9,66.2,67.0,65.7,65.0,97,96,95,30.04,29.98,1,0,0,0.00
2013-6-4,78.2,69.5,62.0,57.0,56.1,55.0,82,64,46,30.03,29.97,2,0,0,0.00
2013-6-5,81.8,69.3,56.4,65.0,59.0,54.0,93,71,51,30.10,29.96,4,0,0,0.00
2013-6-6,74.5,68.4,63.0,67.0,63.3,58.0,96,84,75,30.00,29.80,3,0,0,0.24
2013-6-7,68.6,13.2,66.1,68.0,-67.3,-99.9,97,20,96,29.79,29.49,9,1,0,1.55
2013-6-8,74.2,65.9,65.5,68.0,59.2,-99.9,97,92,80,29.85,29.58,13,3,0,0.04
2013-6-11,80.4,75.5,73.1,70.0,69.2,68.0,85,81,71,29.74,29.68,6,1,0,0.00
2013-6-12,88.9,78.2,67.7,75.0,71.3,66.0,95,80,62,29.76,29.69,9,1,0,0.00
2013-6-13,88.3,75.9,71.3,76.0,71.5,63.0,96,87,65,29.73,29.36,12,2,0,0.76
2013-6-14,81.6,70.8,61.6,63.0,60.4,57.0,92,71,49,29.86,29.47,12,3,0,0.02
2013-6-15,85.7,74.4,64.6,67.0,62.3,59.0,84,67,48,29.97,29.87,9,2,0,0.00
2013-6-16,85.8,75.7,65.2,73.0,67.5,61.0,87,76,64,29.93,29.77,7,1,0,0.00
2013-6-17,89.5,81.0,72.8,76.0,71.5,67.0,87,73,61,29.85,29.77,10,1,0,0.00
2013-6-18,80.9,73.2,65.8,76.0,70.9,65.0,96,92,83,29.82,29.70,4,0,0,0.13
2013-6-19,80.2,71.2,65.0,70.0,65.3,61.0,97,82,65,30.05,29.79,4,0,0,0.00
2013-6-20,83.2,72.2,62.5,70.0,64.2,59.0,96,77,56,30.18,30.06,10,0,0,0.00
2013-6-21,83.9,72.7,59.8,68.0,61.6,57.0,91,70,40,30.22,30.14,9,0,0,0.00
2013-6-22,89.8,76.6,64.4,78.0,69.6,63.0,96,80,61,30.16,30.05,7,0,0,0.00
2013-6-23,88.4,77.4,68.3,78.0,73.3,67.0,95,87,71,30.10,29.97,3,0,0,0.02
2013-6-24,95.5,81.0,72.9,81.0,74.2,70.0,97,81,56,30.02,29.91,6,1,0,0.01
2013-6-25,95.0,82.6,70.0,80.0,74.0,68.0,96,77,57,29.94,29.77,10,1,0,0.25
2013-6-26,93.0,77.6,68.0,80.0,72.9,67.0,97,87,63,29.83,29.71,13,1,0,0.62
2013-6-27,85.2,53.5,73.0,81.0,19.1,-99.9,97,68,77,29.73,29.50,7,0,0,0.41
2013-6-28,88.8,63.7,73.0,79.0,39.9,-99.9,97,71,66,29.53,29.38,7,1,0,0.06
2013-6-29,91.5,79.3,68.4,77.0,72.0,67.0,96,80,51,29.60,29.43,7,1,0,0.01
2013-6-30,86.6,78.7,73.8,82.0,76.7,73.0,97,93,79,29.75,29.60,2,0,0,0.06
2013-7-1,83.9,78.5,74.8,80.0,76.4,73.0,96,93,86,29.90,29.75,3,0,0,0.06
2013-7-2,85.1,78.3,74.9,80.0,76.0,74.0,96,92,81,30.09,29.90,3,0,0,0.02
2013-7-3,88.1,65.9,73.0,82.0,49.2,-99.9,97,86,79,30.14,30.08,4,0,0,0.42
2013-7-4,91.8,71.5,74.6,82.0,53.8,-99.9,97,78,68,30.16,30.07,3,0,0,0.00
2013-7-5,93.1,83.7,74.6,82.0,77.6,74.0,97,82,64,30.13,30.02,4,0,0,0.00
2013-7-6,97.3,84.1,75.3,84.0,77.7,74.0,96,82,60,30.08,29.96,4,0,0,0.00
2013-7-7,94.2,81.9,72.9,83.0,76.1,71.0,95,83,66,30.01,29.89,18,1,0,0.03
2013-7-8,89.4,78.7,72.1,77.0,73.4,71.0,96,85,62,30.00,29.94,6,1,0,0.01
2013-7-9,86.4,80.0,74.3,79.0,75.5,72.0,94,86,76,30.00,29.91,4,0,0,0.00
2013-7-10,90.4,81.5,74.8,81.0,77.5,73.0,96,88,73,29.92,29.75,6,0,0,0.05
2013-7-11,87.9,77.7,73.4,76.0,72.1,-99.9,97,87,64,29.83,29.74,4,0,0,0.20
2013-7-12,78.2,72.0,68.6,74.0,69.8,67.0,96,92,77,29.91,29.80,11,1,0,0.65
2013-7-13,86.2,65.0,70.9,81.0,45.8,-99.9,97,81,82,30.19,29.91,4,0,0,0.14
2013-7-14,91.3,57.3,74.6,84.0,21.5,-99.9,97,60,72,30.25,30.17,3,0,0,0.00
2013-7-15,97.2,85.0,74.0,82.0,77.5,73.0,97,80,57,30.20,30.08,10,1,0,0.00
2013-7-16,97.1,88.7,80.8,80.0,77.1,75.0,83,70,55,30.13,30.06,5,1,0,0.00
2013-7-17,91.6,83.2,80.2,78.0,75.3,74.0,84,77,63,30.11,30.06,4,1,0,0.00
2013-7-21,93.0,83.5,76.8,80.0,76.9,74.0,96,81,63,29.84,29.79,4,0,0,0.01
2013-7-22,89.4,81.4,75.0,82.0,78.3,74.0,96,90,79,29.83,29.66,13,0,0,0.04
2013-7-23,88.6,64.2,73.2,80.0,39.2,-99.9,97,71,65,29.68,29.54,14,2,0,0.23
2013-7-24,86.6,78.8,74.0,74.0,70.5,63.0,91,76,63,29.82,29.57,6,1,0,0.00
2013-7-25,81.1,71.1,62.8,69.0,62.8,56.0,86,75,65,29.94,29.83,5,1,0,0.00
2013-7-26,86.5,75.7,67.0,69.0,66.5,64.0,92,75,53,29.99,29.92,5,0,0,0.00
2013-7-27,85.8,75.5,67.6,77.0,71.3,66.0,97,87,74,29.96,29.83,7,0,0,0.18
2013-7-28,88.1,51.5,72.2,77.0,10.9,-99.9,97,57,66,29.88,29.79,4,0,0,0.02
2013-7-29,83.9,75.5,66.7,68.0,64.1,61.0,90,69,50,30.05,29.87,6,2,0,0.00
2013-7-30,85.1,75.3,65.9,68.0,63.7,60.0,86,68,53,30.13,30.05,7,1,0,0.00
2013-7-31,84.6,75.4,66.2,73.0,69.4,64.0,94,82,65,30.06,29.93,2,0,0,0.00
2013-8-1,87.1,63.4,69.2,77.0,43.9,-99.9,97,77,68,29.93,29.71,3,0,0,0.33
2013-8-2,88.7,79.2,70.3,73.0,70.7,67.0,97,76,58,29.86,29.74,10,1,0,0.00
2013-8-3,78.7,71.8,69.1,71.0,68.4,66.0,95,89,78,29.88,29.82,8,1,0,0.13
2013-8-4,83.6,73.6,67.0,67.0,63.4,59.0,94,72,49,29.92,29.80,8,3,0,0.01
2013-8-5,81.0,70.1,61.6,67.0,61.6,58.0,87,75,63,29.98,29.92,4,1,0,0.00
2013-8-6,72.7,69.6,68.0,71.0,67.5,63.0,96,92,81,29.99,29.93,3,0,0,0.08
2013-8-7,81.8,61.7,68.8,78.0,41.1,-99.9,97,92,84,29.99,29.91,3,0,0,0.02
2013-8-8,89.0,50.5,71.3,82.0,11.5,-99.9,97,60,75,29.96,29.88,3,0,0,0.38
2013-8-9,89.8,50.9,79.1,82.0,7.3,-99.9,96,50,73,29.88,29.75,10,1,0,0.27
2013-8-10,88.6,79.4,72.3,75.0,71.7,68.0,93,78,55,29.98,29.83,7,1,0,0.00
2013-8-11,86.9,77.8,70.2,78.0,72.1,69.0,94,83,69,30.03,29.92,3,0,0,0.00
2013-8-12,90.3,79.7,71.9,77.0,73.3,70.0,96,82,59,29.94,29.83,6,0,0,0.00
2013-8-13,88.1,79.0,74.6,77.0,74.2,67.0,97,86,68,29.82,29.63,8,1,0,0.13
2013-8-14,76.8,69.1,63.4,66.0,59.0,52.0,78,70,65,29.99,29.70,13,3,0,0.00
2013-8-15,83.0,69.7,58.0,62.0,57.5,54.0,87,67,46,30.09,30.00,6,1,0,0.00
2013-8-16,83.1,69.8,58.3,66.0,60.4,56.0,94,74,53,30.11,30.04,6,0,0,0.00
2013-8-17,83.5,72.3,61.7,68.0,63.6,60.0,93,76,57,30.17,30.11,6,0,0,0.00
2013-8-18,77.2,71.4,67.4,67.0,65.0,61.0,93,81,64,30.14,30.07,5,0,0,0.02
2013-8-19,79.2,71.6,63.9,72.0,67.1,62.0,95,86,75,30.09,29.97,3,0,0,0.00
2013-8-20,91.4,74.1,65.3,76.0,61.4,-99.9,97,79,53,30.06,29.99,4,0,0,0.00
2013-8-21,94.4,80.3,69.7,80.0,74.8,69.0,96,84,58,30.10,29.97,2,0,0,0.00
2013-8-22,90.2,81.2,72.5,76.0,74.2,70.0,95,80,61,29.99,29.83,8,2,0,0.00
2013-8-23,79.3,74.4,67.5,72.0,68.2,63.0,90,81,69,30.01,29.84,10,1,0,0.01
2013-8-24,84.6,73.6,65.4,71.0,64.1,59.0,87,73,58,30.25,30.02,4,1,0,0.00
2013-8-25,84.2,72.3,61.4,70.0,63.1,56.0,96,75,52,30.33,30.18,6,0,0,0.00
2013-8-26,90.4,76.3,61.6,72.0,66.0,58.0,92,72,51,30.19,29.89,7,1,0,0.00
2013-8-27,92.2,81.9,71.9,78.0,73.7,69.0,95,77,61,29.89,29.77,6,1,0,0.05
2013-8-28,84.4,78.4,74.5,76.0,74.6,72.0,93,88,74,29.81,29.73,7,1,0,0.00
2013-8-29,88.7,78.7,74.0,76.0,73.8,72.0,95,85,64,29.93,29.75,4,1,0,0.00
2013-8-30,91.9,79.9,71.3,78.0,73.3,69.0,94,81,60,29.94,29.79,4,0,0,0.00
2013-8-31,94.5,81.8,70.8,80.0,75.1,70.0,96,81,59,29.81,29.69,4,0,0,0.00
2013-9-5,84.9,77.5,67.5,67.0,62.4,54.0,65,60,54,30.04,29.91,5,1,0,0.00
2013-9-6,79.7,68.1,57.6,59.0,52.8,48.0,74,59,42,30.17,30.04,4,1,0,0.00
2013-9-7,86.3,70.8,55.9,69.0,59.8,51.0,89,70,47,30.05,29.84,4,0,0,0.00
2013-9-8,87.6,75.0,67.9,72.0,67.6,64.0,90,78,59,29.84,29.78,7,1,0,0.00
2013-9-9,75.8,74.5,74.3,71.0,69.1,68.0,88,83,77,30.06,30.03,2,0,0,0.00
2013-9-10,96.6,82.7,72.8,81.0,75.4,71.0,95,80,59,30.08,29.97,3,0,0,0.00
2013-9-11,99.0,85.0,74.5,84.0,77.4,73.0,96,79,52,30.05,29.90,4,0,0,0.00
2013-9-12,91.5,78.1,70.6,79.0,73.7,70.0,97,87,65,29.90,29.64,5,0,0,0.43
2013-9-13,80.2,66.1,65.0,70.0,48.5,-99.9,97,71,48,29.82,29.59,10,3,0,0.00
2013-9-14,67.6,60.6,54.4,55.0,51.5,50.0,87,73,59,29.98,29.82,9,2,0,0.00